Voltar ao catálogo

COSMOS 886 DEB

AtivoLEO
NORAD 9655·DEBRIS·🇷🇺 Russia

Lançado Dec 27, 1976 de Baikonur Cosmodrome

Loading…

Próximas Passagens (próximas 24 horas)

TLE

AtualizadoSource: Space-Track

Época: Sep 14, 2026, 14:29 UTC

1 09655U 76126M   26257.60410176  .00004145  00000-0  73741-3 0  9993
2 09655  65.7846 215.5358 0639424  46.1399 319.0702 13.84034123401806

Acompanhe COSMOS 886 DEB em tempo real com AllMySat

Download on the App Store